OpenBCM V1.08-5-g2f4a (Linux)

Packet Radio Mailbox

IZ3LSV

[San Dona' di P. JN]

 Login: GUEST





  
CX2SA  > KEPS     20.06.14 04:14l 164 Lines 4273 Bytes #999 (0) @ WW
BID : ORB14170.W
Read: GUEST
Subj: Orbital Elements  14170.WEATHER
Path: IZ3LSV<IQ5KG<IK1NHL<CX2SA
Sent: 140620/0312Z @:CX2SA.SAL.URY.SA #:7049 [Salto] FBB7.00e $:ORB14170.W
From: CX2SA@CX2SA.SAL.URY.SA
To  : KEPS@AMSAT


HR AMSAT ORBITAL ELEMENTS FOR WEATHER SATELLITES
FROM WA5QGD FORT WORTH,TX June 19, 2014
BID: ORB14170.W
TO ALL RADIO AMATEURS BT

Satellite: MET-2/21
Catalog number: 22782
Epoch time:      14170.47350066
Element set:      86
Inclination:      082.5479 deg
RA of node:       171.4908 deg
Eccentricity:    0.0020949
Arg of perigee:   257.2446 deg
Mean anomaly:     256.7140 deg
Mean motion:   13.83737651 rev/day
Decay rate:        4.6e-07 rev/day^2
Epoch rev:            5043
Checksum:              305

Satellite: OKEAN-4
Catalog number: 23317
Epoch time:      14170.49047454
Element set:     564
Inclination:      082.5392 deg
RA of node:       065.7763 deg
Eccentricity:    0.0022310
Arg of perigee:   092.4168 deg
Mean anomaly:     246.5322 deg
Mean motion:   14.85541185 rev/day
Decay rate:       6.53e-06 rev/day^2
Epoch rev:            6344
Checksum:              293

Satellite: NOAA-14
Catalog number: 23455
Epoch time:      14170.47854891
Element set:     789
Inclination:      098.7786 deg
RA of node:       253.8742 deg
Eccentricity:    0.0009868
Arg of perigee:   039.7763 deg
Mean anomaly:     021.3803 deg
Mean motion:   14.13976718 rev/day
Decay rate:       -6.0e-07 rev/day^2
Epoch rev:             427
Checksum:              344

Satellite: NOAA-15
Catalog number: 25338
Epoch time:      14170.51062861
Element set:     224
Inclination:      098.7517 deg
RA of node:       164.3648 deg
Eccentricity:    0.0011617
Arg of perigee:   137.8926 deg
Mean anomaly:     330.5773 deg
Mean motion:   14.25432441 rev/day
Decay rate:       1.28e-06 rev/day^2
Epoch rev:           83717
Checksum:              303

Satellite: RESURS
Catalog number: 25394
Epoch time:      14169.97663646
Element set:     683
Inclination:      098.4120 deg
RA of node:       134.2725 deg
Eccentricity:    0.0000588
Arg of perigee:   189.5256 deg
Mean anomaly:     214.4640 deg
Mean motion:   14.24395650 rev/day
Decay rate:       -3.5e-07 rev/day^2
Epoch rev:           82857
Checksum:              322

Satellite: FENGYUN1
Catalog number: 25730
Epoch time:      14170.46993713
Element set:     172
Inclination:      098.9122 deg
RA of node:       131.5467 deg
Eccentricity:    0.0026577
Arg of perigee:   102.7993 deg
Mean anomaly:     005.9544 deg
Mean motion:   14.11913000 rev/day
Decay rate:       5.97e-06 rev/day^2
Epoch rev:           77784
Checksum:              309

Satellite: OKEAN-0
Catalog number: 25860
Epoch time:      14170.00174541
Element set:     280
Inclination:      098.0420 deg
RA of node:       133.8555 deg
Eccentricity:    0.0001872
Arg of perigee:   090.0785 deg
Mean anomaly:     313.8375 deg
Mean motion:   14.75284746 rev/day
Decay rate:       3.77e-06 rev/day^2
Epoch rev:           80242
Checksum:              287

Satellite: NOAA-16
Catalog number: 26536
Epoch time:      14170.44201900
Element set:     720
Inclination:      098.9906 deg
RA of node:       230.8164 deg
Eccentricity:    0.0011046
Arg of perigee:   174.1366 deg
Mean anomaly:     307.0720 deg
Mean motion:   14.13034118 rev/day
Decay rate:       2.61e-06 rev/day^2
Epoch rev:           70843
Checksum:              262

Satellite: NOAA-17
Catalog number: 27453
Epoch time:      14170.44041880
Element set:     619
Inclination:      098.3133 deg
RA of node:       170.0344 deg
Eccentricity:    0.0012324
Arg of perigee:   162.3781 deg
Mean anomaly:     197.7829 deg
Mean motion:   14.24751834 rev/day
Decay rate:        3.1e-07 rev/day^2
Epoch rev:           62300
Checksum:              281

Satellite: NOAA-18
Catalog number: 28654
Epoch time:      14170.45763362
Element set:     119
Inclination:      099.1473 deg
RA of node:       150.0027 deg
Eccentricity:    0.0013270
Arg of perigee:   256.3512 deg
Mean anomaly:     256.6306 deg
Mean motion:   14.12028268 rev/day
Decay rate:       1.38e-06 rev/day^2
Epoch rev:           46788
Checksum:              296

Satellite: NOAA-19
Catalog number: 33591
Epoch time:      14170.47870387
Element set:     273
Inclination:      098.9441 deg
RA of node:       115.5090 deg
Eccentricity:    0.0015238
Arg of perigee:   112.0468 deg
Mean anomaly:     357.4288 deg
Mean motion:   14.11724732 rev/day
Decay rate:       2.27e-06 rev/day^2
Epoch rev:           27631
Checksum:              306



Read previous mail | Read next mail


 17.12.2025 20:54:32lGo back Go up